RESOURCESAT-2A

Last updated on Mon Jun 22 2026 00:02:52 GMT+0000 (Coordinated Universal Time)

1 41877U 16074A 26172.50486874 .00000122 00000+0 75879-4 0 9999 2 41877 98.7521 245.9744 0003304 76.6022 283.5524 14.21617870494912
UTC large
Height (km)
Speed (km/s)
/
Latitude / Longitude
Inclination (degrees)
Orbital Period (minutes)
Azimuth
Elevation
Range (km)
Doppler Factor

Next 0 passes for location: London (51.5072 / 0.1276)

No passes found over London.
RESOURCESAT-2A